Location: La Sioule Rivi�re
(46.3664°N, 3.3197°E)
Time: 12:55:06
(UTC+00:00)

Cosmos 2227 Rocket - Pass Details

Date: 29 October 2020
Orbit: 839 x 845 km, 71.0° (Epoch: 23 November)

Event Time Altitude Azimuth Distance (km) Brightness Sun altitude
Rises 18:34:54 0° 327° (NNW) 3,408 5.9 -21.0°
Reaches altitude 10° 18:37:30 10° 319° (NW) 2,469 5.2 -21.5°
Maximum altitude 18:42:39 37° 254° (WSW) 1,287 3.6 -22.4°
Drops below altitude 10° 18:47:47 10° 188° (S) 2,457 4.6 -23.2°
Sets 18:50:22 0° 181° (S) 3,388 5.3 -23.7°
